Latest Coastal Weather Observations for Yeppoon

IDQ60701

Issued at 11:42 pm EST Sunday 11 December 2016 (issued every 10 minutes, with the page automatically refreshed every 10 minutes)

About coastal observations | Map of coastal stations | Coastal observations for QLD | Marine services | Other Formats
Station Details ID: 033294 Name: YEPPOON THE ESPLANADE Lat: -23.14 Lon: 150.75 Height: 5.5 m
Data from the previous 72 hours. | See also: Recent months at Yeppoon
Date/Time
EST
Temp
°C
Wind Pressure Rain since
9am
mm
Weather Cloud Vis
km
Sea
Height
m
Swell
Dir  Spd
kts
Gust
kts
hPa Trend Height
m
Period
s
Dir
11/11:30pm 24.8 ESE 17 24 1017.8 - 0.0 - - - - - - -
11/11:00pm 24.8 ESE 15 22 1018.2 - 0.0 - - - - - - -
11/10:30pm 25.0 ESE 15 23 1018.5 - 0.0 - - - - - - -
11/10:00pm 25.0 ESE 14 21 1018.6 - 0.0 - - - - - - -
11/09:50pm 25.0 ESE 15 25 1018.5 - 0.0 - - - - - - -
11/09:30pm 25.0 SE 12 17 1018.4 - 0.0 - - - - - - -
11/09:00pm 25.0 ESE 15 22 1018.3 - 0.0 - - - - - - -
11/08:30pm 25.0 ESE 15 24 1018.3 - 0.0 - - - - - - -
11/08:17pm 25.1 ESE 15 25 1018.3 - 0.0 - - - - - - -
11/08:00pm 24.9 ESE 19 26 1018.1 - 0.0 - - - - - - -
11/07:30pm 24.8 ESE 18 25 1017.8 - 0.0 - - - - - - -
11/07:00pm 24.6 ESE 19 27 1017.3 - 0.0 - - - - - - -
11/06:36pm 24.6 SE 15 25 1017.2 - 0.0 - - - - - - -
11/06:30pm 24.4 SE 15 23 1017.1 - 0.0 - - - - - - -
11/06:17pm 24.1 ESE 16 26 1017.0 - 0.0 - - - - - - -
11/06:00pm 24.4 ESE 16 24 1016.8 - 0.0 - - - - - - -
11/05:38pm 24.7 ESE 18 28 1016.7 - 0.0 - - - - - - -
11/05:30pm 24.6 ESE 21 29 1016.7 - 0.0 - - - - - - -
11/05:06pm 24.3 ESE 20 30 1016.6 - 0.0 - - - - - - -
11/05:00pm 24.1 ESE 21 30 1016.5 - 0.0 - - - - - - -
11/04:30pm 24.8 ESE 15 26 1016.4 - 0.0 - - - - - - -
11/04:00pm 25.0 SE 15 23 1016.2 - 0.0 - - - - - - -
11/03:40pm 24.9 SE 15 25 1016.1 - 0.0 - - - - - - -
11/03:30pm 24.8 ESE 17 24 1016.2 - 0.0 - - - - - - -
11/03:20pm 25.0 SE 15 25 1016.2 - 0.0 - - - - - - -
11/03:00pm 24.9 ESE 16 23 1016.3 - 0.0 - - - - - - -
11/02:30pm 25.0 ESE 16 25 1016.6 - 0.0 - - - - - - -
11/02:10pm 25.0 ESE 16 27 1016.6 - 0.0 - - - - - - -
11/02:00pm 25.3 ESE 14 21 1016.7 - 0.0 - - - - - - -
11/01:30pm 25.2 ESE 14 23 1016.8 - 0.0 - - - - - - -
11/01:00pm 25.6 ESE 17 23 1017.1 - 0.0 - - - - - - -
11/12:30pm 25.7 ESE 15 23 1017.4 - 0.0 - - - - - - -
11/12:00pm 25.5 ESE 15 21 1017.6 - 0.0 - - - - - - -
11/11:30am 25.5 ESE 15 25 1017.7 - 0.0 - - - - - - -
11/11:21am 25.5 ESE 15 25 1017.8 - 0.0 - - - - - - -
11/11:00am 25.6 ESE 19 25 1017.6 - 0.0 - - - - - - -
11/10:35am 25.4 ESE 18 28 1017.8 - 0.0 - - - - - - -
11/10:30am 25.5 ESE 19 25 1017.9 - 0.0 - - - - - - -
11/10:17am 25.6 ESE 17 27 1017.9 - 0.0 - - - - - - -
11/10:00am 25.9 ESE 16 22 1017.8 - 0.0 - - - - - - -
11/09:32am 25.6 ESE 15 25 1017.7 - 0.0 - - - - - - -
11/09:30am 25.7 ESE 15 22 1017.7 - 0.0 - - - - - - -
11/09:00am 25.7 ESE 17 24 1017.5 - 13.6 - - - - - - -
11/08:30am 25.6 ESE 15 22 1017.3 - 13.6 - - - - - - -
11/08:00am 25.3 SE 13 20 1017.0 - 13.6 - - - - - - -
11/07:30am 24.5 ESE 16 23 1016.9 - 13.6 - - - - - - -
11/07:00am 24.2 ESE 17 27 1016.9 - 13.6 - - - - - - -
11/06:30am 24.4 ESE 17 27 1016.8 - 13.6 - - - - - - -
11/06:01am 25.0 ESE 17 27 1016.3 - 13.6 - - - - - - -
11/06:00am 24.9 ESE 17 25 1016.3 - 13.6 Recent precip. - - - - - -
11/05:39am 24.4 ESE 15 26 1015.9 - 13.4 - - - - - - -
11/05:30am 24.2 ESE 14 21 1016.0 - 13.4 - - - - - - -
11/05:05am 23.9 ESE 17 27 1015.9 - 13.4 - - - - - - -
11/05:00am 24.0 ESE 18 24 1015.8 - 13.4 - - - - - - -
11/04:47am 24.1 ESE 15 25 1015.8 - 13.4 - - - - - - -
11/04:30am 23.9 ESE 19 25 1015.8 - 13.4 - - - - - - -
11/04:00am 24.0 ESE 16 23 1015.7 - 13.4 - - - - - - -
11/03:30am 23.9 ESE 16 23 1015.6 - 13.4 - - - - - - -
11/03:00am 24.1 ESE 19 24 1015.5 - 13.4 Recent precip. - - - - - -
11/02:30am 24.1 ESE 16 26 1015.6 - 13.0 - - - - - - -
11/02:27am 24.2 ESE 17 27 1015.6 - 13.0 - - - - - - -
11/02:00am 24.5 ESE 17 24 1015.8 - 13.0 - - - - - - -
11/01:30am 24.7 ESE 17 24 1016.1 - 13.0 - - - - - - -
11/01:00am 24.9 E 20 25 1016.2 - 12.8 - - - - - - -
11/12:30am 25.4 E 19 25 1016.4 - 12.8 - - - - - - -
11/12:00am 25.5 E 20 26 1016.8 - 12.8 - - - - - - -
 
Date/Time
EST
Temp
°C
Wind Pressure Rain since
9am
mm
Weather Cloud Vis
km
Sea
Height
m
Swell
Dir  Spd
kts
Gust
kts
hPa Trend Height
m
Period
s
Dir
10/11:30pm 25.3 E 21 28 1017.3 - 12.8 - - - - - - -
10/11:00pm 25.1 E 21 27 1017.5 - 12.8 - - - - - - -
10/10:30pm 24.9 E 20 25 1017.8 - 12.8 - - - - - - -
10/10:00pm 24.9 E 22 27 1017.9 - 12.8 - - - - - - -
10/09:30pm 24.5 ESE 22 31 1017.4 - 12.8 - - - - - - -
10/09:08pm 24.2 ESE 21 31 1017.3 - 12.8 - - - - - - -
10/09:00pm 24.2 ESE 22 29 1017.2 - 12.4 Recent precip. - - - - - -
10/08:30pm 24.2 E 26 33 1016.6 - 12.4 - - - - - - -
10/08:00pm 24.1 ESE 23 28 1016.6 - 12.2 - - - - - - -
10/07:30pm 24.0 ESE 17 27 1016.6 - 11.8 - - - - - - -
10/07:01pm 24.0 ESE 15 25 1016.2 - 10.2 - - - - - - -
10/07:00pm 23.9 ESE 15 21 1016.2 - 10.0 - - - - - - -
10/06:52pm 24.0 ESE 15 25 1016.1 - 9.8 - - - - - - -
10/06:30pm 24.4 ESE 22 30 1016.2 - 9.4 - - - - - - -
10/06:04pm 24.4 ESE 19 29 1015.8 - 9.2 - - - - - - -
10/06:00pm 24.3 ESE 20 29 1015.9 - 9.2 Rain - - - - - -
10/05:40pm 24.2 SE 17 27 1015.2 - 8.6 - - - - - - -
10/05:30pm 24.1 SE 18 27 1015.0 - 8.2 - - - - - - -
10/05:14pm 24.1 SE 15 25 1015.0 - 8.0 - - - - - - -
10/05:00pm 24.4 SE 15 23 1014.4 - 7.6 - - - - - - -
10/04:30pm 26.3 ESE 14 20 1014.4 - 7.0 - - - - - - -
10/04:00pm 26.1 E 18 22 1014.1 - 7.0 - - - - - - -
10/03:30pm 24.5 E 15 23 1014.5 - 6.8 - - - - - - -
10/03:00pm 27.1 ESE 15 19 1014.3 - 0.2 - - - - - - -
10/02:30pm 27.2 E 16 20 1013.9 - 0.2 - - - - - - -
10/02:00pm 27.1 ESE 14 18 1014.3 - 0.2 - - - - - - -
10/01:30pm 27.3 E 16 20 1014.2 - 0.2 - - - - - - -
10/01:00pm 27.3 ESE 12 19 1014.9 - 0.2 - - - - - - -
10/12:30pm 27.6 ESE 13 17 1015.1 - 0.2 - - - - - - -
10/12:00pm 27.0 ESE 12 17 1015.4 - 0.2 - - - - - - -
10/11:30am 26.7 SE 11 16 1015.6 - 0.2 - - - - - - -
10/11:00am 27.0 ESE 13 18 1015.8 - 0.2 - - - - - - -
10/10:30am 28.2 ESE 8 11 1015.6 - 0.0 - - - - - - -
10/10:00am 27.9 SE 8 10 1015.7 - 0.0 - - - - - - -
10/09:30am 27.4 ESE 8 12 1015.7 - 0.0 - - - - - - -
10/09:00am 27.0 SE 7 11 1015.5 - 7.4 - - - - - - -
10/08:30am 26.6 ESE 11 14 1015.3 - 7.4 - - - - - - -
10/08:00am 26.2 SSE 7 9 1015.3 - 7.4 - - - - - - -
10/07:30am 25.4 SSW 5 6 1015.1 - 7.4 - - - - - - -
10/07:00am 24.9 SSW 4 5 1014.7 - 7.4 - - - - - - -
10/06:30am 24.3 S 6 8 1014.3 - 7.4 - - - - - - -
10/06:00am 24.0 SSE 3 6 1013.8 - 7.4 - - - - - - -
10/05:30am 23.8 CALM 0 0 1013.4 - 7.4 - - - - - - -
10/05:00am 23.9 SSE 1 3 1013.0 - 7.4 - - - - - - -
10/04:30am 23.9 SSE 4 5 1012.8 - 7.4 - - - - - - -
10/04:00am 24.7 ENE 4 5 1012.5 - 7.2 - - - - - - -
10/03:30am 25.0 ENE 7 8 1012.4 - 7.2 - - - - - - -
10/03:00am 24.9 ENE 8 10 1012.3 - 7.2 - - - - - - -
10/02:30am 24.8 ENE 7 9 1012.6 - 7.2 - - - - - - -
10/02:00am 24.4 ENE 7 9 1013.0 - 7.2 - - - - - - -
10/01:30am 24.7 ENE 7 9 1013.2 - 7.0 - - - - - - -
10/01:00am 24.5 E 6 9 1013.1 - 6.8 - - - - - - -
10/12:30am 24.7 ENE 8 10 1013.5 - 6.2 - - - - - - -
10/12:00am 24.6 ENE 10 12 1013.8 - 5.6 Recent precip. - - - - - -
 
Date/Time
EST
Temp
°C
Wind Pressure Rain since
9am
mm
Weather Cloud Vis
km
Sea
Height
m
Swell
Dir  Spd
kts
Gust
kts
hPa Trend Height
m
Period
s
Dir
09/11:30pm 24.8 E 9 12 1013.8 - 5.4 - - - - - - -
09/11:00pm 24.6 E 13 15 1013.8 - 4.6 - - - - - - -
09/10:30pm 24.8 ESE 12 18 1013.8 - 3.4 - - - - - - -
09/10:00pm 26.6 NE 7 9 1013.6 - 2.2 - - - - - - -
09/09:30pm 26.9 CALM 0 0 1013.6 - 1.4 - - - - - - -
09/09:00pm 26.8 NNE 4 6 1013.5 - 0.4 Rain - - - - - -
09/08:30pm 27.3 NNE 6 7 1012.9 - 0.0 - - - - - - -
09/08:00pm 27.2 N 5 7 1012.6 - 0.0 - - - - - - -
09/07:30pm 27.2 N 5 8 1012.6 - 0.0 - - - - - - -
09/07:00pm 27.6 NNE 13 15 1011.5 - 0.0 - - - - - - -
09/06:30pm 27.5 NNE 18 21 1010.3 - 0.0 - - - - - - -
09/06:00pm 27.6 NNE 18 21 1009.6 - 0.0 - - - - - - -
09/05:30pm 27.9 NNE 19 21 1009.5 - 0.0 - - - - - - -
09/05:00pm 27.9 NNE 20 23 1009.1 - 0.0 - - - - - - -
09/04:30pm 27.9 NNE 21 23 1008.7 - 0.0 - - - - - - -
09/04:00pm 28.8 NNE 20 23 1008.7 - 0.0 - - - - - - -
09/03:30pm 28.7 NNE 21 23 1008.8 - 0.0 - - - - - - -
09/03:00pm 29.3 NNE 21 24 1008.9 - 0.0 - - - - - - -
09/02:30pm 29.4 NNE 19 21 1009.4 - 0.0 - - - - - - -
09/02:00pm 29.5 NNE 17 19 1009.7 - 0.0 - - - - - - -
09/01:30pm 29.4 NE 13 17 1010.0 - 0.0 - - - - - - -
09/01:00pm 29.4 NE 11 14 1010.1 - 0.0 - - - - - - -
09/12:30pm 30.5 NE 11 13 1010.2 - 0.0 - - - - - - -
09/12:00pm 30.4 NE 10 12 1010.4 - 0.0 - - - - - - -
09/11:30am 30.1 NE 10 12 1010.4 - 0.0 - - - - - - -
09/11:00am 29.4 NE 11 12 1010.8 - 0.0 - - - - - - -
09/10:30am 29.1 NE 10 11 1011.0 - 0.0 - - - - - - -
09/10:00am 28.3 ENE 9 11 1011.3 - 0.0 - - - - - - -
09/09:30am 28.7 ENE 9 11 1011.6 - 0.0 - - - - - - -
09/09:00am 28.1 NE 9 11 1011.7 - 0.0 - - - - - - -
09/08:30am 29.2 W 4 6 1012.0 - 0.0 - - - - - - -
09/08:00am 27.7 SW 5 7 1012.2 - 0.0 - - - - - - -
09/07:30am 27.3 W 4 7 1012.6 - 0.0 - - - - - - -
09/07:00am 26.0 W 1 3 1012.7 - 0.0 - - - - - - -
09/06:30am 24.3 W 3 5 1012.6 - 0.0 - - - - - - -
09/06:00am 23.7 W 4 6 1012.4 - 0.0 - - - - - - -
09/05:30am 23.0 W 5 6 1011.9 - 0.0 - - - - - - -
09/05:00am 22.7 W 6 8 1011.2 - 0.0 - - - - - - -
09/04:30am 22.9 W 5 7 1010.7 - 0.0 - - - - - - -
09/04:00am 23.4 NW 4 5 1010.2 - 0.0 - - - - - - -
09/03:30am 23.9 NW 1 4 1009.9 - 0.0 - - - - - - -
09/03:00am 24.5 NNW 4 7 1009.9 - 0.0 - - - - - - -
09/02:30am 25.0 NNW 6 10 1009.9 - 0.0 - - - - - - -
09/02:00am 24.2 NNW 3 6 1010.2 - 0.0 - - - - - - -
09/01:30am 24.5 NNW 4 5 1010.5 - 0.0 - - - - - - -
09/01:00am 24.9 N 4 7 1010.4 - 0.0 - - - - - - -
09/12:30am 24.5 NNW 5 6 1010.6 - 0.0 - - - - - - -
09/12:00am 24.8 NNW 4 5 1011.1 - 0.0 - - - - - - -

Other Formats:

Comma delimited format used in spreadsheet applications
http://www.bom.gov.au/fwo/IDQ60701/IDQ60701.94373.axf

JavaScript Object Notation format (JSON) in row-major order
http://www.bom.gov.au/fwo/IDQ60701/IDQ60701.94373.json